Location: Norton
(51.3000°N, 0.8167°E)
Time: 13:35:24
(UTC+00:00)

SJ 16-02 - Pass Details

Date: 03 March 2021
Orbit: 605 x 617 km, 75.0° (Epoch: 11 April)

Event Time Altitude Azimuth Distance (km) Brightness Sun altitude
Rises 21:11:31 0° 329° (NNW) 2,885 5.7 -32.2°
Reaches altitude 10° 21:13:59 10° 318° (NW) 1,977 4.8 -32.5°
Enters shadow 21:16:34 25° 287° (WNW) 1,255 3.4 -32.8°
